Weather History for Rensselaer, IN

Change the Weather History Date:

Saturday, March 16, 2013

  Actual Average (KVPZ) Record (KVPZ)
Temperature  
Mean Temperature 36 °F 38 °F  
Max Temperature 41 °F 47 °F 81 °F (2012)
Min Temperature 32 °F 29 °F 11 °F (1970)
Degree Days  
Heating Degree Days 28 27  
Month to date heating degree days 480  
Since 1 July heating degree days 5212  
Cooling Degree Days 0 0  
Month to date cooling degree days 0  
Year to date cooling degree days 0  
Moisture  
Dew Point 33 °F    
Average Humidity 92    
Maximum Humidity 100    
Minimum Humidity 80    
Precipitation  
Precipitation 0.00 in 0.07 in 1.17 in (1943)
Month to date precipitation 1.19  
Year to date precipitation 4.36  
Sea Level Pressure  
Sea Level Pressure 29.88 in    
Wind  
Wind Speed 8 mph (North)    
Max Wind Speed 17 mph    
Max Gust Speed 24 mph    
Visibility 6 miles    
Events Fog , Thunderstorm    
T = Trace of Precipitation, MM = Missing Value Source: NWS Daily Summary

Daily Weather History Graph

Daily Weather History Graph

Search for Another Location

Airport:

Trip Planner

Search our weather history database for the weather conditions in past years. The results will help you decide how hot, cold, wet, or windy it might be!

Date:

Astronomy

Mar. 16, 2013 Rise Set
Actual Time 6:58 AM CDT 6:56 PM CDT
Civil Twilight 6:30 AM CDT 7:24 PM CDT
Nautical Twilight 5:59 AM CDT 7:56 PM CDT
Astronomical Twilight 5:26 AM CDT 8:28 PM CDT
Moon 9:25 AM CDT (3/16) No Moon Set
Length of Visible Light 12h 53m
Length of Day
11h 58m
Waxing Crescent, 23% of the Moon is Illuminated
Mar 16
Waxing Crescent
Mar 19
First Quarter
Mar 27
Full
Apr 2
Last Quarter
Apr 10
New

Hourly Weather History & Observations

Time (CDT) Temp. Windchill Dew Point Humidity Pressure Visibility Wind Dir Wind Speed Gust Speed Precip Events Conditions
12:15 AM 37.4 °F 33.8 °F 37.4 °F 100% 29.69 in 5.0 mi ENE 4.6 mph - N/A   Mist
12:35 AM 37.4 °F 32.8 °F 35.6 °F 93% 29.68 in 5.0 mi NE 5.8 mph - N/A   Mist
12:55 AM 39.2 °F 33.6 °F 37.4 °F 93% 29.69 in 5.0 mi North 8.1 mph - N/A   Mist
1:15 AM 41.0 °F 36.4 °F 37.4 °F 87% 29.68 in 5.0 mi North 6.9 mph - N/A   Mist
1:55 AM 39.2 °F 33.0 °F 37.4 °F 93% 29.68 in 2.5 mi North 9.2 mph - N/A   Mist
2:15 AM 39.2 °F 32.5 °F 37.4 °F 93% 29.67 in 1.5 mi North 10.4 mph - N/A   Mist
2:35 AM 37.4 °F 32.1 °F 37.4 °F 100% 29.66 in 0.5 mi NNE 6.9 mph - N/A Fog Fog
2:55 AM 37.4 °F 31.4 °F 37.4 °F 100% 29.66 in 0.8 mi NNE 8.1 mph - N/A   Mist
3:15 AM 37.4 °F 29.8 °F 37.4 °F 100% 29.64 in 0.8 mi NNE 11.5 mph - N/A   Mist
3:35 AM 37.4 °F 30.8 °F 37.4 °F 100% 29.63 in 1.0 mi NE 9.2 mph - N/A   Mist
3:55 AM 37.4 °F 32.1 °F 37.4 °F 100% 29.63 in 0.8 mi NE 6.9 mph - N/A   Mist
4:35 AM 37.4 °F 30.8 °F 37.4 °F 100% 29.66 in 0.5 mi North 9.2 mph - N/A Fog , Thunderstorm Fog
4:55 AM 37.4 °F 30.3 °F 37.4 °F 100% 29.67 in 0.5 mi North 10.4 mph - N/A Fog Fog
5:15 AM 37.4 °F 31.4 °F 37.4 °F 100% 29.68 in 0.8 mi North 8.1 mph - N/A Thunderstorm Mist
5:35 AM 37.4 °F 30.8 °F 37.4 °F 100% 29.66 in 0.5 mi North 9.2 mph - N/A Fog Fog
5:55 AM 37.4 °F 30.8 °F 37.4 °F 100% 29.68 in 1.2 mi North 9.2 mph - N/A   Mist
6:15 AM 37.4 °F 32.1 °F 37.4 °F 100% 29.70 in 1.2 mi North 6.9 mph - N/A   Mist
6:35 AM 37.4 °F 31.4 °F 37.4 °F 100% 29.70 in 0.8 mi North 8.1 mph - N/A   Mist
6:55 AM 37.4 °F 30.8 °F 37.4 °F 100% 29.70 in 0.8 mi NNE 9.2 mph - N/A   Mist
7:15 AM 37.4 °F 32.8 °F 37.4 °F 100% 29.71 in - North 5.8 mph - N/A   Unknown
7:35 AM 37.4 °F 32.8 °F 37.4 °F 100% 29.73 in 0.2 mi NNW 5.8 mph - N/A Fog Fog
7:55 AM 35.6 °F 29.2 °F 35.6 °F 100% 29.74 in 0.2 mi NNW 8.1 mph - N/A Fog Fog
8:15 AM 35.6 °F 29.9 °F 35.6 °F 100% 29.75 in 0.8 mi NNW 6.9 mph - N/A   Mist
8:35 AM 35.6 °F 28.6 °F 35.6 °F 100% 29.76 in 1.0 mi NNW 9.2 mph - N/A   Mist
8:55 AM 35.6 °F 28.6 °F 35.6 °F 100% 29.77 in 1.2 mi NNW 9.2 mph 16.1 mph N/A   Mist
9:15 AM 35.6 °F 28.0 °F 35.6 °F 100% 29.79 in 1.2 mi NW 10.4 mph 16.1 mph N/A   Mist
9:35 AM 35.6 °F 28.0 °F 35.6 °F 100% 29.80 in 1.5 mi NNW 10.4 mph - N/A   Mist
9:55 AM 35.6 °F 27.5 °F 35.6 °F 100% 29.81 in 1.8 mi NNW 11.5 mph 19.6 mph N/A   Mist
10:15 AM 35.6 °F 26.6 °F 35.6 °F 100% 29.82 in 2.5 mi NW 13.8 mph 19.6 mph N/A   Mist
10:35 AM 35.6 °F 27.1 °F 35.6 °F 100% 29.84 in 4.0 mi NW 12.7 mph 19.6 mph N/A   Mist
10:55 AM 35.6 °F 25.9 °F 35.6 °F 100% 29.85 in 7.0 mi NNW 16.1 mph 24.2 mph N/A   Unknown
11:15 AM 35.6 °F 26.2 °F 33.8 °F 93% 29.86 in 7.0 mi NNW 15.0 mph 21.9 mph N/A   Unknown
11:35 AM 35.6 °F 26.6 °F 33.8 °F 93% 29.88 in 10.0 mi NNW 13.8 mph 24.2 mph N/A   Unknown
11:55 AM 35.6 °F 26.2 °F 33.8 °F 93% 29.89 in 10.0 mi NNW 15.0 mph 21.9 mph N/A   Unknown
12:15 PM 35.6 °F 28.0 °F 33.8 °F 93% 29.90 in 10.0 mi NNW 10.4 mph 19.6 mph N/A   Unknown
12:35 PM 33.8 °F 24.8 °F 32.0 °F 93% 29.91 in 10.0 mi NNW 12.7 mph 21.9 mph N/A   Unknown
12:55 PM 33.8 °F 24.3 °F 32.0 °F 93% 29.93 in 10.0 mi NNW 13.8 mph 21.9 mph N/A   Unknown
1:15 PM 33.8 °F 23.9 °F 32.0 °F 93% 29.93 in 10.0 mi North 15.0 mph 20.7 mph N/A   Unknown
1:35 PM 33.8 °F 23.5 °F 32.0 °F 93% 29.94 in 10.0 mi NNW 16.1 mph 21.9 mph N/A   Unknown
1:55 PM 33.8 °F 23.2 °F 32.0 °F 93% 29.94 in 10.0 mi NNW 17.3 mph 23.0 mph N/A   Unknown
2:15 PM 33.8 °F 24.3 °F 32.0 °F 93% 29.94 in 10.0 mi NNW 13.8 mph 20.7 mph N/A   Unknown
2:35 PM 33.8 °F 25.3 °F 32.0 °F 93% 29.95 in 10.0 mi NNW 11.5 mph 21.9 mph N/A   Unknown
2:55 PM 33.8 °F 24.8 °F 32.0 °F 93% 29.95 in 10.0 mi NNW 12.7 mph 19.6 mph N/A   Unknown
3:15 PM 33.8 °F 24.3 °F 32.0 °F 93% 29.96 in 10.0 mi NNW 13.8 mph 19.6 mph N/A   Unknown
3:35 PM 33.8 °F 24.8 °F 32.0 °F 93% 29.97 in 10.0 mi North 12.7 mph 19.6 mph N/A   Unknown
3:55 PM 33.8 °F 24.8 °F 30.2 °F 87% 29.98 in 10.0 mi North 12.7 mph 19.6 mph N/A   Unknown
4:15 PM 33.8 °F 26.4 °F 30.2 °F 87% 29.99 in 10.0 mi North 9.2 mph - N/A   Unknown
4:35 PM 33.8 °F 25.3 °F 30.2 °F 87% 30.00 in 10.0 mi North 11.5 mph 17.3 mph N/A   Unknown
4:55 PM 32.0 °F 23.6 °F 30.2 °F 93% 30.00 in 10.0 mi North 10.4 mph - N/A   Unknown
5:15 PM 32.0 °F 24.2 °F 30.2 °F 93% 30.01 in 10.0 mi North 9.2 mph 17.3 mph N/A   Unknown
5:55 PM 32.0 °F 24.2 °F 28.4 °F 87% 30.03 in 10.0 mi NNW 9.2 mph - N/A   Unknown
6:15 PM 32.0 °F 26.4 °F 28.4 °F 87% 30.03 in 10.0 mi North 5.8 mph 17.3 mph N/A   Unknown
6:35 PM 32.0 °F 28.7 °F 28.4 °F 87% 30.03 in 10.0 mi North 3.5 mph - N/A   Unknown
6:55 PM 32.0 °F 24.8 °F 28.4 °F 87% 30.04 in 10.0 mi North 8.1 mph - N/A   Unknown
7:15 PM 32.0 °F 24.8 °F 28.4 °F 87% 30.04 in 10.0 mi North 8.1 mph - N/A   Unknown
7:35 PM 32.0 °F 24.2 °F 28.4 °F 87% 30.03 in 10.0 mi North 9.2 mph - N/A   Unknown
7:55 PM 32.0 °F 25.6 °F 26.6 °F 80% 30.04 in 10.0 mi North 6.9 mph - N/A   Unknown
8:15 PM 32.0 °F 25.6 °F 26.6 °F 80% 30.05 in 10.0 mi North 6.9 mph - N/A   Unknown
8:35 PM 32.0 °F 24.2 °F 26.6 °F 80% 30.07 in 10.0 mi North 9.2 mph - N/A   Unknown
8:55 PM 32.0 °F 26.4 °F 26.6 °F 80% 30.08 in 10.0 mi North 5.8 mph - N/A   Unknown
9:15 PM 32.0 °F 27.5 °F 26.6 °F 80% 30.10 in 10.0 mi North 4.6 mph - N/A   Unknown
9:35 PM 32.0 °F 27.5 °F 26.6 °F 80% 30.10 in 10.0 mi North 4.6 mph - N/A   Unknown
9:55 PM 32.0 °F 26.4 °F 26.6 °F 80% 30.10 in 10.0 mi NNE 5.8 mph - N/A   Unknown
10:15 PM 32.0 °F 28.7 °F 26.6 °F 80% 30.10 in 10.0 mi NNE 3.5 mph - N/A   Unknown
10:35 PM 32.0 °F - 26.6 °F 80% 30.10 in 10.0 mi Calm Calm - N/A   Unknown
10:55 PM 32.0 °F - 26.6 °F 80% 30.10 in 10.0 mi Calm Calm - N/A   Unknown
11:15 PM 32.0 °F - 26.6 °F 80% 30.10 in 10.0 mi Calm Calm - N/A   Unknown
11:35 PM 32.0 °F - 26.6 °F 80% 30.09 in 10.0 mi Calm Calm - N/A   Unknown
11:55 PM 32.0 °F 28.7 °F 28.4 °F 87% 30.10 in 10.0 mi NNW 3.5 mph - N/A   Unknown